Weather Roundup
Issued by NWS

Home | Current Version | Previous Version | Graphics & Text | Print | Product List | Glossary Off
Versions: 1 2 3 4 5 6 7 8 9 10 11 12 13 14 15 16 17 18 19 20 21 22 23 24 25 26 27 28 29 30 31 32 33 34 35 36 37 38 39 40 41 42 43 44 45 46 47 48 49 50

000
NZUS93 KARX 261210
HRRWXR

CURRENT HOURLY OBSERVATIONS ACROSS
MUCH OF THE UPPER MISSISSIPPI VALLEY
NATIONAL WEATHER SERVICE LA CROSSE WI
700 AM CDT THU APR 26 2018


...SOUTHEAST MINNESOTA...


CITY           SKY/WX    TMP DP  RH WIND       PRES   REMARKS
ROCHESTER      FAIR      36  33  89 S7        29.90S WCI  30
ROCHESTER/MAYO FAIR      41  32  70 S6        29.90S
WINONA         FAIR      36  32  87 CALM      29.90R
AUSTIN         FAIR      39  34  81 S3        29.90F
ALBERT LEA     FAIR      39  36  87 CALM      29.91R
DODGE CENTER   FAIR      45  34  65 S12G18    29.89S
PRESTON        FAIR      38  32  78 SW8       29.92R WCI  32
OWATONNA       FAIR      39  36  87 S7        29.90R WCI  34
FARIBAULT      NOT AVBL
$$

...ELSEWHERE IN MINNESOTA...


CITY           SKY/WX    TMP DP  RH WIND       PRES   REMARKS
MINNEAPOLIS    MOCLDY    46  35  65 S7        29.87F
INTNL FALLS    FAIR      43  36  76 N16       29.82R
DULUTH         FAIR      43  30  60 SW14      29.78F
RED WING       FAIR      34  28  80 CALM      29.89S
REDWOOD FALLS  CLOUDY    37  33  85 CALM      29.85R
MANKATO        FAIR      40  34  79 S6        29.89S
WORTHINGTON    CLOUDY    43  32  65 SW20      29.87F
FAIRMONT       CLOUDY    40  33  76 SW9       29.90R WCI  34
$$

...SOUTHWEST WISCONSIN...


CITY           SKY/WX    TMP DP  RH WIND       PRES   REMARKS
LA CROSSE      FAIR      41  35  79 SE6       29.92S
PRAIRIE DU CHI FAIR      37  30  78 E3        29.94R
BOSCOBEL       FAIR      34  31  88 CALM      29.95R
LONE ROCK      FAIR      33  30  88 CALM      29.95R
PLATTEVILLE    FAIR      38  34  86 S7        29.95S WCI  32
FORT MC COY    FAIR      30  27  88 CALM      29.93S
CAMP DOUGLAS   PTCLDY    34  30  86 CALM      29.91S
MAUSTON-NEW LI FAIR      37  33  84 CALM      29.91S
VIROQUA        FAIR      41  29  62 CALM      29.92S
WIS DELLS      FAIR      38  32  78 S3        29.93S
$$

...ELSEWHERE IN WISCONSIN...


CITY           SKY/WX    TMP DP  RH WIND       PRES   REMARKS
MILWAUKEE      FAIR      38  31  76 CALM      29.97R
MADISON        PTSUNNY   38  31  76 CALM      29.95R
GREEN BAY      FAIR      37  33  85 SW5       29.92R WCI  33
EAU CLAIRE     FAIR      32  27  81 CALM      29.89R
BLACK RVR FLS  FAIR      28  28 100 CALM      29.92R
MEDFORD        FAIR      35  28  74 S5        29.88S WCI  31
WAUSAU         FAIR      31  28  89 E3        29.88S
WIS RAPIDS     FAIR      31  27  85 CALM      29.91S
MARSHFIELD     FAIR      35  29  78 CALM      29.88S
RICE LAKE      FAIR      31  30  96 CALM      29.89S
$$

...NORTHEAST IOWA...


CITY           SKY/WX    TMP DP  RH WIND       PRES   REMARKS
WATERLOO       FAIR      33  31  92 CALM      29.94R
DUBUQUE        FAIR      37  31  78 S6        29.94S WCI  32
DECORAH        FAIR      37  32  81 CALM      29.92S
MASON CITY     CLOUDY    39  33  79 SW7       29.93S WCI  34
CHARLES CITY   FAIR      39  39 100 S3        29.93S
OELWEIN        FAIR      39  37  93 W5        29.94S
$$

...ELSEWHERE IN IOWA...


CITY           SKY/WX    TMP DP  RH WIND       PRES   REMARKS
DES MOINES     CLOUDY    41  34  76 W3        29.96R
IOWA CITY      FAIR      38  31  76 CALM      29.97R
FORT DODGE     CLOUDY    38  33  82 SW3       29.94S
MARSHALLTOWN   CLOUDY    34  31  88 CALM      29.94R
CEDAR RAPIDS   FAIR      40  30  67 CALM      29.93S
$$

...NORTHERN ILLINOIS...


CITY           SKY/WX    TMP DP  RH WIND       PRES   REMARKS
CHICAGO-OHARE  FAIR      38  31  76 CALM      29.96R
CHICAGO-MIDWAY FAIR      40  32  73 NW3       29.96S
MOLINE         FAIR      36  31  82 E5        29.96R WCI  32
ROCKFORD       FAIR      34  30  85 CALM      29.98R
PEORIA         FAIR      38  31  76 CALM      29.98R
$$

NOTE: "FAIR" INDICATES FEW OR NO CLOUDS BELOW 12,000 FEET WITH NO
SIGNIFICANT WEATHER AND/OR OBSTRUCTIONS TO VISIBILITY. WIND
SPEEDS ARE IN MILES-PER-HOUR.




USA.gov is the U.S. government's official web portal to all federal, state and local government web resources and services.